星链-11537 (STARLINK-11537)

导读

STARLINK-11537是美国SpaceX星链星座的一颗卫星,于2025年2月8日发射升空,属于星链低轨互联网星座的扩容卫星,将为全球提供高速低延迟宽带互联网服务,尤其能覆盖偏远、通信基础设施薄弱区域,助力全球互联,是SpaceX推进大规模星链组网部署的组成部分,服务民用、商业与特定领域通信需求。

Basic Information
目录编号:
62911
目录名称:
STARLINK-11537
国际标识:
2025-027E
轨道中心:
EARTH
卫星名称:
星链-11537
卫星全名:
星链-11537 (STARLINK-11537)
卫星状态:
在轨 (已飞行574 天)
发射日期:
2025-02-08 UTC
国别 :
美国 (US)
星等 :
--
Orbit Information
数据来源 国际轨道数据
星历时间: 2026-09-05T02:03:07+0800
13小时前
查看轨道信息
半长轴: 6734.626km
偏心率: 0.0001392
轨道倾角: 43.000°
近地点辐角 273.880°
升交点赤经 348.368°
平近点角 86.191°
近地点: 355.551km
远地点: 357.427km
周期: 91.671分钟
每日圈数: 15.708422
Detailed Information
固有亮度:
5
最大亮度:
2.5
卫星平台:
Starlink V1.0
覆盖范围:
全球
运营商:
太空探索技术公司
运营商所在国:
美国
制造商(研发单位):
太空探索技术公司
制造商所在国:
美国
使用方式:
暂无
Satellite Introduction
Starlink 计划是 SpaceX 推出的全球卫星互联网项目,通过发射低轨道卫星,为全球尤其是偏远地区提供高速、低延迟的互联网服务。自 2019 年起,Starlink 已部署数千颗卫星,旨在缩小全球数字鸿沟,推动互联网普及。该项目还为军事、航空等行业提供通信支持,带来广泛经济效益。
2D Orbit Map
3D Orbit Map
Orbit Altitude Analysis Chart
Orbit Inclination Analysis Chart
Orbit Comprehensive Analysis Chart
View Comprehensive Chart
Conjunction Data List
Event ID Objects TCA Miss Dist (km) Collision Risk Probability Collision Risk Index (CRI) Action
CDM_260905-225803-218506-291121
2026-09-05T
22:58:26+0000
1.844 km
极远距离
3.516404E-6 低风险 0.46